Flag for Germany Weather past 2 weeks in Kerpen, North Rhine-Westphalia, Germany

Now
39 °F

Passing clouds.


Feels Like: 39 °F
Forecast: 33 / 58 °F
Wind: 2 mph from West

Location: Noervenich

Current Time: Apr 28, 2015 at 4:17:09 AM

Latest Report: Apr 28, 2015 at 3:20 AM


Visibility: N/A

Pressure: 29.86 "Hg

Humidity: 81%

Dew point: 34 °F

Location of KerpenLocation

Historic Weather in Kerpen — Graph

°F

Kerpen temperature yesterday

Maximum temperature yesterday: 54 °F (at 12:20 AM)
Minimum temperature yesterday: 43 °F (at 10:20 PM)
Average temperature yesterday: 48 °F

Past Weeks' High & Low Weather Summary

 TemperatureHumidityPressure
High75 °F (Apr 15, 2:20 PM)100% (Apr 23, 6:01 AM)30.48 "Hg (Apr 23, 6:01 AM)
Low34 °F (Apr 19, 6:20 AM)27% (Apr 24, 3:20 PM)29.62 "Hg (Apr 27, 1:20 AM)
Average53 °F65%30.09 "Hg
* Reported Apr 13 2:20 AM — Apr 28 2:20 AM, Kerpen, Weather by CustomWeather, © 2015

Note: Actual official high and low records may vary slightly from our data, if they occured in-between our weather recording intervals... More about our weather records

Advertising

Kerpen weather history for previous 24 hours

 ConditionsComfort  
Time TempWeatherWind HumidityBarometerVisibility
2:20 AM
Tue, Apr 28
41 °FPassing clouds.5 mph76%29.86 "HgN/A
1:20 AM43 °FPassing clouds.3 mph76%29.83 "HgN/A
12:20 AM46 °FPassing clouds.3 mph82%29.83 "HgN/A
11:20 PM
Mon, Apr 27
43 °FPassing clouds.2 mph87%29.80 "HgN/A
10:20 PM43 °FPassing clouds.1 mph87%29.80 "HgN/A
9:20 PM46 °FBroken clouds.2 mph76%29.80 "HgN/A
8:20 PM48 °FPartly sunny.2 mph71%29.77 "HgN/A
7:20 PM50 °FPartly sunny.3 mph67%29.77 "HgN/A
6:20 PM48 °FPartly sunny.3 mph71%29.77 "HgN/A
5:20 PM48 °FPartly sunny.5 mph71%29.77 "HgN/A
4:20 PM48 °FBroken clouds.8 mph71%29.77 "HgN/A
3:20 PM48 °FPartly sunny.6 mph71%29.77 "HgN/A
2:20 PM48 °FBroken clouds.8 mph76%29.74 "HgN/A
1:20 PM46 °FPartly sunny.9 mph82%29.74 "HgN/A
12:20 PM46 °FPartly sunny.8 mph87%29.74 "Hg6 mi
11:20 AM46 °FBroken clouds.10 mph87%29.71 "Hg4 mi
10:48 AM46 °FBroken clouds.9 mph93%29.71 "Hg4 mi
10:20 AM46 °FFog.8 mph93%29.71 "Hg3 mi
9:20 AM46 °FDrizzle. Fog.6 mph93%29.68 "Hg3 mi
8:20 AM46 °FDrizzle. Fog.7 mph93%29.68 "Hg2 mi
7:20 AM46 °FLight rain. Fog.8 mph100%29.65 "Hg2 mi
6:54 AM48 °FLight rain. Fog.9 mph94%29.65 "Hg2 mi
6:20 AM48 °FLight rain. Fog.7 mph100%29.62 "Hg2 mi
5:20 AM50 °FLight rain. Fog.7 mph100%29.62 "Hg2 mi
4:20 AM52 °FLight rain. Fog.7 mph94%29.62 "Hg2 mi
Weather by CustomWeather, © 2015

See weather overviewHow to use our weather pages